Flag for Germany Weather past 2 weeks in Deggendorf, Bavaria, Germany

Now
43 °F

Fog.


Feels Like: 40 °F
Forecast: 40 / 56 °F
Wind: 5 mph from Southeast

Location: Straubing

Current Time: Oct 25, 2014 at 12:44:17 PM

Latest Report: Oct 25, 2014 at 12:00 PM


Visibility: 4 mi

Pressure: 30.24 "Hg

Humidity: 93%

Dew point: 41 °F

Location of DeggendorfLocation

Historic Weather in Deggendorf — Graph

°F

Deggendorf temperature yesterday

Maximum temperature yesterday: 53 °F (at 4:00 PM)
Minimum temperature yesterday: 42 °F (at 10:00 PM)
Average temperature yesterday: 47 °F

Past Weeks' High & Low Weather Summary

 TemperatureHumidityPressure
High66 °F (Oct 13, 2:00 PM)100% (Oct 10, 11:00 AM)30.30 "Hg (Oct 10, 11:00 AM)
Low36 °F (Oct 25, 3:00 AM)71% (Oct 13, 3:00 PM)29.62 "Hg (Oct 21, 9:00 PM)
Average53 °F91%29.99 "Hg
* Reported Oct 10 11:00 AM — Oct 25 11:00 AM, Deggendorf, Weather by CustomWeather, © 2014

Note: Actual official high and low records may vary slightly from our data, if they occured in-between our weather recording intervals... More about our weather records

Advertising

Deggendorf weather history for previous 24 hours

 ConditionsComfort  
Time TempWeatherWind HumidityBarometerVisibility
11:00 AM
Oct 25
42 °FFog.5 mph96%30.22 "Hg3 mi
10:00 AM42 °FFog.2 mph98%30.22 "Hg3 mi
9:00 AM41 °FLow clouds.1 mph100%30.22 "Hg2 mi
8:00 AM38 °FLow clouds.1 mph100%30.21 "Hg0 mi
7:00 AM37 °FLow clouds.1 mph100%30.20 "HgN/A
6:00 AM38 °FLow clouds.2 mph100%30.20 "HgN/A
4:00 AM36 °FPassing clouds.2 mph100%30.20 "HgN/A
3:00 AM36 °FLow clouds.2 mph100%30.21 "HgN/A
2:00 AM39 °FLow clouds.1 mph100%30.21 "HgN/A
1:00 AM41 °FLow clouds.1 mph100%30.21 "HgN/A
12:00 AM40 °FLow clouds.1 mph100%30.22 "HgN/A
10:00 PM
Oct 24
42 °FFog.1 mph95%30.21 "Hg3 mi
9:00 PM43 °FFog.2 mph95%30.20 "Hg4 mi
8:00 PM46 °FPassing clouds.2 mph91%30.19 "Hg6 mi
7:00 PM47 °FOvercast.2 mph88%30.19 "Hg7 mi
6:00 PM51 °FOvercast.1 mph79%30.18 "Hg11 mi
4:00 PM53 °FOvercast.2 mph71%30.19 "Hg12 mi
3:00 PM52 °FOvercast.1 mph75%30.20 "Hg14 mi
2:00 PM52 °FOvercast.2 mph77%30.21 "Hg11 mi
1:00 PM50 °FOvercast.2 mph80%30.24 "Hg11 mi
12:00 PM49 °FSunny.1 mph83%30.25 "Hg7 mi
Weather by CustomWeather, © 2014

See weather overviewHow to use our weather pages